Location: Erlenbrunn
(49.1717°N, 7.6142°E)
Time: 09:56:05
(UTC+00:00)

Cosmos 1939 Rocket - Pass Details

Date: 25 November 2020
Orbit: 532 x 584 km, 97.4° (Epoch: 25 January)

Event Time Altitude Azimuth Distance (km) Brightness Sun altitude
Rises 16:07:23 0° 118° (ESE) 2,676 6.0 -5.1°
Reaches altitude 10° 16:10:17 10° 94° (E) 1,796 4.9 -5.5°
Maximum altitude 16:12:24 14° 60° (ENE) 1,542 4.4 -5.8°
Drops below altitude 10° 16:14:32 10° 27° (NNE) 1,815 5.0 -6.1°
Sets 16:17:28 0° 3° (N) 2,723 6.1 -6.5°
